Weather in Polkhovskiy Maydan

Russia / Nizhny Novgorod Oblast'     54°51′05″N   42°38′39″E
temp.,
°C
wind,
m/s
gust,
m/s
humid.,
%
clouds,
%
prec.,
mm/h
press.,
hPa
HPBL,
m
7 july, thu
thu700:00+18sw348098 0.2 101562
03:00+16ssw3485100 0.2 101661
06:00+18ssw3684100 0.2 1016152
09:00+23sw356319 0.6 1016373
12:00+28ssw45438 0.2 10161217
15:00+29sw24407 0.2 10151845
18:00+27s47535 0.0 1015381
21:00+21s47682 0.0 1016111
8 july, fri
fri800:00+18s34745 0.0 101649
03:00+16s33775 0.0 101648
06:00+18s25747 0.0 1017131
09:00+24s345294 0.0 1016484
12:00+28sw3444100 0.0 10161297
15:00+29wsw2244100 0.0 10151762
18:00+26wsw4559100 0.0 1014375
21:00+18ssw2293100 3.2 101618
9 july, sat
sat900:00+17sw119089 0.0 101511
03:00+16sw119016 0.0 101511
06:00+19w01847 0.0 101672
09:00+24ssw116259 0.0 1015441
12:00+28wsw224710 0.0 10141290
15:00+29wsw234249 0.0 10131551
18:00+25ese236036 0.0 1012148
21:00+17nne348846 0.4 101360
10 july, sun
sun1000:00+17e378988 0.1 1012122
03:00+18sse1186100 0.1 101213
06:00+19se2383100 0.0 1012111
09:00+23s4561100 0.0 1012441
12:00+29s4541100 0.0 10121642
15:00+28s563992 0.0 10121068
18:00+28sse47468 0.0 1012356
21:00+19sw118285 0.8 101315
11 july, mon
mon1100:00+18ese33915 0.9 101338
03:00+17ese37905 1.0 1013108
06:00+18e411877 0.0 1013254
09:00+26ese6105286 0.0 1012635
12:00+28se81143100 0.0 10121227
15:00+25ese4960100 0.0 1014417
18:00+24se51258100 0.0 1014488
21:00+19ene61186100 1.3 1013218